Location: Dampvalley
(47.9094°N, 6.1967°E)
Time: 02:38:01
(UTC+00:00)

SO-50 - Pass Details

Date: 30 November 2021
Orbit: 595 x 689 km, 64.6° (Epoch: 24 January)

Event Time Altitude Azimuth Distance (km) Brightness Sun altitude
Rises 17:56:48 0° 317° (NW) 3,020 ? -21.3°
Reaches altitude 10° 17:59:09 10° 312° (NW) 2,115 ? -21.7°
Maximum altitude 18:03:47 48° 239° (WSW) 888 ? -22.5°
Drops below altitude 10° 18:08:28 10° 165° (SSE) 2,132 ? -23.3°
Enters shadow 18:09:33 - 163° (SSE) 2,541 ? -23.4°
